Wind_Gust
24 23 22 21 21 21 15 12 12 10 11 12 10 7 9 6 9 15 15 21 21 16 12 12 14 17 19 16 20 21 24 18 20 24 23 22 17 16 14 15 17 14 14 13 9 20 21 19 20 13 18 18 20 20 24 19 20 21 18 19 14 11 14 15 12 10 16 20 12 18 17 15 18 21 9 13 11 17 17 15 9 9 11 19 10 13 7
23 23 21 21 21 19 18 15 14 13 9 11 11 11 8 7 9 11 15 22 19 13 11 9 9 16 17 18 21 17 22 18 22 23 23 14 14 9 12 15 16 20 10 13 17 15 22 20 17 19 14 22 19 19 26 24 28 29 13 20 11 29 8 13 11 10 15 15 11 20 19 23 22 12 11 7 7 8 12 17 11 11 6 21 19 17 12
22 21 21 22 21 20 19 17 16 14 11 10 7 11 10 12 14 11 15 12 11 18 12 10 7 13 15 20 20 20 19 12 20 22 24 14 15 10 12 12 18 23 14 19 20 19 16 20 21 10 12 13 26 18 24 25 14 24 13 8 15 10 10 14 11 16 19 26 26 24 22 24 13 12 11 9 12 15 8 15 11 15 7 21 19 13 13
22 22 22 22 21 20 17 15 15 14 12 10 7 7 13 8 6 15 13 13 13 15 15 12 9 13 13 13 19 17 21 20 22 27 28 20 17 5 16 16 15 15 13 13 17 18 19 14 21 20 10 10 29 15 23 23 16 24 14 20 13 13 11 12 9 13 12 10 8 2 13 16 26 13 15 15 19 19 11 7 7 14 7 12 10 37 28
24 23 23 22 21 19 17 14 11 10 10 10 8 8 8 10 8 11 9 10 13 15 14 15 14 12 7 8 14 12 12 20 26 15 12 8 11 11 12 17 15 9 10 8 15 15 26 16 12 16 6 7 15 14 19 20 18 21 14 19 14 6 7 9 7 7 5 8 10 12 11 17 14 13 17 19 20 17 13 9 11 15 19 8 8 32 39
23 24 23 22 21 19 16 14 12 9 8 9 8 11 9 5 8 7 5 9 6 13 13 17 17 18 11 12 16 19 18 12 9 15 12 11 11 8 8 11 13 13 11 8 12 19 28 15 8 16 13 10 4 12 9 18 16 20 16 6 13 13 8 4 8 5 7 7 9 18 13 20 21 21 11 12 9 19 18 9 22 16 15 21 21 20 32
25 25 23 22 20 20 17 16 14 11 11 9 8 10 11 12 15 9 9 5 4 7 7 12 11 13 12 16 14 16 14 13 12 10 13 13 12 11 6 9 15 15 14 4 10 12 16 14 11 9 7 7 9 12 9 8 13 18 17 13 11 14 6 3 5 5 8 8 18 15 19 22 19 18 16 16 20 13 9 7 12 21 19 29 29 19 22
25 25 25 22 21 20 19 18 14 12 14 12 10 10 9 10 10 11 15 7 6 9 9 10 11 12 10 5 10 15 11 12 10 12 10 8 10 11 13 14 20 17 16 17 10 4 5 7 5 8 5 5 9 5 4 6 9 15 13 13 8 15 11 7 6 5 6 12 13 19 19 24 24 19 20 19 28 27 20 26 31 37 32 28 27 24 20
26 26 25 24 23 21 20 19 15 12 10 10 9 7 7 8 5 10 11 10 10 11 8 9 9 10 8 9 13 12 11 13 12 13 12 13 12 7 10 15 18 15 15 15 10 12 9 11 7 6 6 13 6 8 9 14 11 17 9 9 8 14 7 6 7 9 5 5 12 10 13 18 24 22 19 18 12 19 10 25 12 30 27 31 27 24 21
27 27 26 25 24 22 21 20 16 12 8 10 9 8 4 6 5 7 6 7 7 9 8 6 8 8 7 11 14 14 11 13 14 11 9 17 18 7 3 8 8 10 15 11 8 7 8 10 11 7 6 7 6 11 11 14 12 9 11 8 11 9 13 11 7 12 5 3 9 10 12 11 14 13 8 10 12 18 23 25 18 23 39 36 28 25 25
26 28 28 26 25 24 22 21 18 11 11 8 7 8 6 7 9 6 3 4 3 5 6 7 6 12 14 17 19 17 19 19 16 8 9 9 7 13 9 10 9 3 4 4 6 7 6 6 11 15 19 18 18 16 19 20 18 12 12 10 8 11 13 9 5 13 5 6 8 6 13 12 9 9 13 5 7 20 26 14 14 10 10 12 12 30 27
27 29 29 27 26 24 23 21 19 15 5 9 8 12 11 9 8 6 4 3 5 4 4 9 11 14 16 21 17 18 16 13 16 11 10 4 5 5 11 15 8 9 8 6 8 7 9 15 12 16 17 18 21 21 22 24 26 14 12 18 12 13 14 7 6 12 8 9 11 16 14 11 8 9 17 18 17 31 31 22 19 16 22 29 31 27 25
28 27 29 28 27 25 24 22 19 17 8 11 9 13 8 4 7 8 6 6 6 6 5 7 10 15 17 18 17 14 11 8 6 4 5 3 4 5 10 16 11 10 6 8 8 14 12 5 10 7 14 12 17 19 26 25 26 17 17 14 17 13 16 12 10 9 8 13 10 22 14 7 4 9 13 14 17 20 33 26 18 15 20 28 27 22 22
27 27 29 31 28 26 24 22 21 18 13 7 12 14 12 10 8 6 4 6 9 8 6 13 15 9 9 10 13 19 13 10 6 5 5 4 7 5 9 14 12 9 3 3 7 11 10 8 11 12 13 11 9 13 17 14 21 23 18 19 19 8 17 15 12 5 16 12 10 12 7 5 6 10 10 7 9 8 13 20 11 11 13 22 28 23 21
29 29 31 31 30 28 25 22 21 19 13 8 13 14 13 13 12 8 6 5 7 13 10 8 12 7 11 10 12 10 4 2 4 6 7 5 8 8 8 13 5 7 3 3 6 5 5 8 8 8 5 9 10 9 8 10 16 17 12 15 18 13 10 10 17 7 13 16 15 12 8 17 16 7 4 5 9 15 14 22 11 11 13 16 26 25 22
28 29 30 31 31 30 27 24 21 16 11 6 11 14 15 13 11 11 8 9 9 11 6 12 9 6 5 6 8 8 6 4 5 4 4 6 9 11 9 5 3 3 5 7 6 6 3 6 6 6 7 6 6 13 13 10 12 13 15 12 15 14 15 12 19 12 12 9 12 12 12 12 8 13 5 7 14 16 11 16 11 12 17 16 23 26 24
29 30 29 30 29 29 27 25 21 17 13 3 11 12 17 12 13 11 11 10 11 13 23 23 11 5 10 10 10 7 6 5 7 9 8 7 13 12 12 6 5 5 9 4 5 7 7 6 3 9 8 10 12 11 19 17 12 13 13 10 17 13 7 16 16 12 9 9 8 8 6 9 7 12 7 9 10 7 8 11 17 20 21 20 22 24 25
30 31 29 29 27 27 26 26 24 19 14 5 9 13 19 12 14 12 10 11 10 15 11 17 11 11 12 9 7 9 7 9 8 13 6 6 8 10 9 5 4 9 9 8 4 7 5 6 4 4 5 13 9 6 11 12 13 8 8 7 10 10 8 9 14 11 14 11 8 7 5 8 9 10 7 8 6 6 10 16 13 25 23 22 22 22 20
32 31 30 29 28 27 25 24 22 21 18 11 11 17 22 18 14 9 11 13 12 11 25 16 16 13 13 12 9 11 13 10 8 8 10 11 6 12 8 8 7 5 4 7 3 5 4 3 5 6 5 5 5 8 8 7 10 9 5 7 9 5 8 5 11 12 13 8 12 7 5 5 2 11 9 13 12 10 13 5 17 30 26 22 23 23 20
32 30 30 29 29 28 26 24 21 19 17 12 8 15 20 16 9 16 14 12 8 15 24 18 22 20 19 17 15 14 11 15 12 12 11 12 11 13 13 14 15 7 8 6 6 6 9 4 3 3 3 3 4 5 10 6 8 11 11 3 10 5 9 8 8 11 10 8 11 8 15 9 4 5 6 4 10 6 10 24 23 22 25 26 24 24 22
32 30 30 30 28 27 26 24 22 18 15 12 6 14 17 9 11 15 13 8 10 10 17 17 17 16 17 14 12 17 14 12 10 7 9 7 10 11 11 11 13 9 10 10 10 7 10 5 6 13 13 10 9 11 7 5 7 11 8 6 8 7 11 10 6 5 14 10 13 14 7 10 6 6 10 5 9 15 19 28 27 21 24 25 23 22 21
32 31 30 30 30 29 27 24 23 20 17 14 12 12 14 13 10 11 14 11 9 12 14 19 18 9 10 12 7 11 13 13 10 4 5 8 9 6 4 7 12 9 9 6 7 7 5 11 12 6 11 10 12 11 18 12 9 12 5 8 11 6 6 6 14 4 7 11 9 5 8 13 15 19 17 17 17 15 15 18 26 27 24 21 22 22 21
32 31 31 31 31 31 29 27 24 20 18 17 14 8 15 15 10 7 8 11 14 17 18 14 7 13 13 17 14 11 13 6 3 2 5 7 8 11 15 12 6 11 6 6 3 5 7 8 5 9 13 8 16 17 21 7 14 11 8 11 16 10 17 14 26 16 19 22 10 10 13 14 13 13 17 21 18 16 17 21 23 16 18 18 22 24 23
33 32 31 31 31 31 30 30 27 24 21 16 9 14 14 11 15 12 8 10 7 14 21 12 14 10 12 16 15 14 12 9 6 4 4 4 9 8 7 9 7 9 6 5 5 4 6 5 4 10 12 6 10 8 12 13 8 12 16 10 14 15 9 7 22 13 14 15 5 15 15 13 15 18 15 16 16 18 17 15 16 18 19 23 22 24 24
33 31 30 31 31 31 31 30 29 27 22 20 22 12 14 13 10 4 12 10 9 5 6 8 7 16 16 11 12 15 16 14 7 5 4 8 6 7 5 4 3 3 5 10 8 7 7 5 5 11 11 6 5 12 10 17 15 8 17 12 15 10 12 25 12 10 11 18 12 14 15 15 16 18 18 18 18 17 14 16 17 20 21 22 23 22 22
33 31 32 32 30 31 31 30 30 27 26 23 13 12 12 12 12 7 4 6 12 9 7 6 6 8 13 14 18 19 16 15 12 11 8 9 9 5 3 4 6 5 7 6 6 10 7 7 8 13 11 10 8 15 14 16 20 19 21 13 10 12 5 11 10 20 20 17 13 15 14 14 13 14 12 15 18 21 21 21 20 19 22 23 20 17 20
32 32 33 30 31 30 30 29 29 28 29 24 20 14 13 13 7 12 9 10 14 7 11 9 9 13 12 13 12 15 17 13 12 7 9 13 13 9 5 7 7 8 11 8 6 6 9 14 12 14 10 11 8 11 11 14 15 11 10 8 5 14 19 20 21 22 18 19 22 20 25 18 13 14 16 19 21 22 23 22 21 19 21 22 20 18 17
32 32 32 30 31 30 30 30 28 30 28 29 18 16 13 8 7 10 11 10 8 4 10 10 15 6 4 12 16 14 14 12 10 9 10 10 9 9 10 11 7 10 10 11 13 14 11 13 10 5 8 8 12 12 12 14 15 17 16 14 12 12 21 19 21 22 19 15 18 8 12 18 15 18 19 21 21 23 23 22 23 22 18 17 20 22 21
31 31 30 30 30 30 29 29 27 28 29 26 21 15 11 8 10 9 13 10 5 8 10 12 13 10 9 8 14 10 12 9 7 9 10 12 9 7 7 8 10 7 5 8 10 10 9 4 4 8 6 4 8 11 9 12 10 12 11 7 7 7 14 15 15 16 16 20 13 15 18 20 21 18 19 19 18 21 20 21 21 20 20 19 19 21 23
32 32 32 30 30 30 29 27 27 26 25 21 14 12 7 7 6 8 9 11 11 8 8 11 6 7 3 7 8 14 10 9 7 6 9 8 10 9 9 7 7 7 8 10 7 9 5 6 5 4 5 2 9 10 12 11 12 9 6 7 6 8 12 16 24 26 25 19 16 17 19 17 17 18 17 17 16 20 21 21 20 20 19 19 20 18 16
33 32 31 30 29 29 28 27 24 24 18 15 13 8 10 9 8 10 15 16 11 9 8 8 10 4 4 7 7 8 8 5 2 4 4 6 6 7 8 8 9 8 12 10 7 4 5 6 4 4 3 8 6 8 13 13 9 6 4 12 13 13 13 14 13 20 23 18 21 23 20 18 17 19 15 14 16 17 17 17 16 15 20 19 18 16 15
34 32 31 30 29 28 27 26 23 17 15 10 9 7 7 8 9 17 21 15 14 8 6 10 12 3 4 3 3 4 9 10 9 7 6 5 7 4 8 6 9 5 8 7 5 8 7 3 7 9 9 9 11 17 12 13 13 9 9 15 13 13 14 16 17 17 18 24 27 23 20 17 16 17 22 18 15 15 16 18 17 18 17 17 15 13 14
34 33 31 30 29 28 27 25 25 16 15 19 17 19 21 25 26 23 10 15 9 11 10 11 7 6 4 6 5 5 6 3 7 5 6 7 3 2 7 3 7 4 4 8 8 6 4 6 4 10 9 8 12 14 18 12 13 6 10 13 13 15 17 18 17 18 17 18 22 26 26 23 19 17 18 17 16 17 18 18 16 16 16 18 16 17 17
35 34 32 29 28 28 25 23 25 23 16 9 12 5 4 8 9 12 10 6 11 12 6 7 9 6 9 4 6 4 4 9 5 5 6 6 4 4 7 4 6 7 8 9 3 6 8 9 9 6 6 14 10 14 14 14 10 11 14 16 16 15 16 17 15 15 16 14 14 15 17 17 20 19 18 17 17 15 13 14 16 17 18 17 16 16 17
35 33 31 29 26 22 25 18 14 7 9 13 11 5 4 6 7 7 4 8 7 8 9 8 7 8 7 6 5 6 6 8 8 9 7 6 6 8 4 5 5 7 8 5 10 3 5 6 4 9 5 6 9 11 13 13 15 15 16 13 13 15 12 15 13 13 13 14 15 17 21 21 22 19 20 19 20 19 19 19 17 17 18 17 16 16 17
35 34 29 25 24 17 15 8 10 8 8 8 7 6 10 12 10 9 9 5 7 6 8 8 11 9 8 7 5 9 8 4 2 3 6 4 5 4 5 3 7 6 5 7 8 3 5 3 8 7 5 7 6 13 12 13 16 16 15 15 12 11 14 13 15 15 15 16 17 19 21 20 20 19 19 20 20 19 19 19 16 15 16 19 18 16 13
38 30 26 21 12 6 8 9 9 8 8 5 14 15 20 11 7 6 5 6 10 9 8 8 10 12 12 8 7 5 3 3 5 5 2 7 3 6 4 6 7 6 7 7 4 5 3 5 9 9 9 10 10 14 13 13 13 14 15 14 11 10 13 13 14 17 21 22 21 21 20 20 19 18 19 20 19 19 19 17 15 16 18 18 15 11 12
37 28 13 7 7 5 6 3 7 11 10 13 11 8 6 4 6 5 7 6 8 8 10 10 13 17 13 7 7 5 4 3 3 4 4 3 3 5 6 8 6 5 4 7 5 6 8 11 12 9 10 13 15 16 16 13 13 12 13 11 10 11 13 13 18 22 23 24 23 23 21 22 21 19 21 21 20 19 17 15 15 15 15 16 13 11 14
22 15 8 6 6 6 6 9 14 21 15 9 3 5 7 8 6 7 9 10 8 9 9 9 14 10 14 7 7 5 8 4 6 5 5 3 6 5 4 6 6 7 5 6 6 7 8 5 7 10 11 12 16 14 14 15 13 13 12 11 11 12 14 18 17 18 19 18 21 21 22 27 26 24 19 19 19 16 16 15 13 14 15 15 11 14 13
19 20 11 11 6 9 14 14 18 19 6 4 5 6 9 9 6 8 8 7 9 11 6 10 9 10 5 2 7 4 3 4 4 7 5 4 8 6 5 4 6 7 7 5 8 5 11 9 6 6 8 10 15 13 16 17 16 15 14 13 13 14 15 18 17 16 14 15 16 17 17 17 18 18 19 17 16 16 16 13 16 16 17 13 12 17 12
19 18 14 9 14 19 19 22 19 9 5 4 7 10 8 7 8 9 4 7 8 11 13 9 7 7 8 2 2 6 5 4 4 7 6 6 5 4 4 6 6 4 8 5 7 8 10 8 11 8 12 10 17 17 18 17 17 17 15 14 14 16 20 21 21 20 19 18 16 16 16 17 15 15 12 11 12 17 15 16 20 17 15 11 17 16 12
22 23 21 23 25 25 21 12 10 5 8 7 7 9 10 7 7 7 9 6 11 9 7 8 6 7 7 7 8 6 6 3 2 4 4 5 5 5 4 5 4 5 4 5 7 5 9 8 10 10 13 14 15 16 16 17 19 18 17 15 13 16 20 20 21 21 21 19 19 18 17 17 13 14 14 12 11 15 14 16 18 17 14 13 15 14 13
26 20 15 16 13 12 10 7 9 10 9 7 6 8 6 6 9 9 9 12 10 8 7 8 8 8 9 9 8 9 7 4 6 5 5 3 3 4 4 4 4 4 4 5 5 7 5 7 7 10 16 17 17 15 11 18 17 17 18 17 12 16 20 18 17 19 15 15 16 14 17 15 12 13 13 11 13 13 13 13 18 17 12 14 16 15 15
18 16 12 11 8 12 7 9 12 11 9 11 9 9 6 7 6 7 9 8 8 10 8 11 8 4 7 6 6 4 6 6 3 3 3 6 4 4 3 5 6 4 4 3 4 8 8 6 8 19 17 17 16 15 14 14 14 15 17 15 11 13 16 13 13 15 13 14 15 12 11 12 14 13 12 12 13 13 13 13 15 15 11 11 14 17 11
13 6 8 6 8 7 11 12 13 10 9 9 8 9 10 9 8 6 12 9 9 10 5 4 5 10 7 6 6 5 5 5 6 6 7 6 5 5 6 5 6 7 5 5 6 7 6 6 14 19 19 19 18 16 15 16 14 16 18 16 14 13 16 15 15 14 13 15 15 15 11 14 14 16 11 14 11 11 14 15 16 14 13 11 12 15 12
7 6 6 5 7 9 12 7 9 10 9 6 12 9 11 11 12 14 13 15 12 9 9 9 5 8 5 7 10 8 6 5 8 8 6 6 5 7 5 6 4 3 5 4 7 7 8 8 17 17 19 19 19 17 18 16 14 15 18 21 20 14 16 15 15 13 15 15 16 14 14 14 15 16 13 18 12 15 14 15 12 16 16 11 9 13 13
12 10 8 8 10 10 10 11 9 11 7 8 10 11 13 15 15 14 15 10 12 10 6 11 10 9 10 7 8 6 5 7 9 8 7 6 9 5 5 5 5 6 6 7 6 9 7 14 17 19 19 20 18 19 18 18 17 17 17 15 15 17 16 17 17 15 16 16 16 15 16 16 14 13 14 16 9 15 14 14 11 18 16 13 8 9 13
8 9 12 11 10 11 10 14 9 12 10 12 12 13 15 15 14 16 14 17 7 7 9 8 4 6 4 7 4 6 8 10 7 6 8 5 8 8 5 7 9 9 10 6 8 8 9 12 18 19 19 21 21 22 19 19 18 19 17 17 18 19 18 18 18 17 18 19 19 16 17 14 17 14 16 17 10 13 15 16 12 17 17 13 9 10 13
9 8 11 10 11 9 9 6 11 17 14 14 15 15 15 15 16 16 13 5 4 5 7 9 7 6 7 10 6 6 8 11 13 11 8 5 8 10 10 8 6 9 11 11 10 10 13 9 20 19 20 19 20 21 20 19 20 21 21 20 20 21 18 19 18 17 17 19 17 17 16 15 17 14 17 16 12 13 14 16 16 15 14 17 13 15 14
6 10 10 11 9 11 12 13 12 12 10 13 12 15 11 12 7 7 6 4 2 3 5 5 6 6 4 12 8 10 9 9 11 11 9 9 9 8 7 8 10 8 7 8 13 9 4 17 19 17 18 18 18 19 19 19 17 18 17 18 18 19 19 19 18 18 18 19 17 17 16 16 17 13 17 16 14 13 11 14 15 13 13 10 12 16 19
9 10 14 10 14 15 11 10 8 9 9 12 9 11 7 9 5 9 3 6 3 5 4 8 7 10 7 8 7 9 13 6 9 11 10 9 11 9 11 10 7 9 13 12 12 6 18 19 19 20 15 16 16 15 17 17 19 18 17 18 18 18 18 18 17 19 17 19 16 14 18 17 16 14 14 14 11 15 15 14 19 16 12 9 15 19 21
8 13 12 13 16 20 21 20 20 19 19 20 19 13 6 8 6 11 3 7 5 9 9 8 9 10 10 10 10 8 7 7 12 6 10 11 13 10 10 10 11 12 12 12 14 11 16 16 21 20 21 20 18 14 15 15 17 16 17 17 18 18 18 18 18 19 18 19 17 16 16 15 13 14 13 15 9 13 20 16 18 18 15 13 9 11 17
Wind_Speed
19 18 17 17 17 17 12 10 10 9 9 3 3 3 2 2 3 6 3 7 8 6 4 3 4 5 7 10 12 11 11 10 8 10 11 9 8 4 6 6 8 6 5 4 2 5 4 8 4 6 9 7 11 7 14 13 12 9 3 6 4 8 2 5 3 1 3 9 5 7 5 4 6 9 4 2 4 7 7 4 4 3 3 8 3 5 0
18 18 17 17 17 15 14 13 11 10 7 2 4 3 1 2 2 3 3 14 11 3 3 3 4 5 8 10 11 10 10 8 10 9 10 3 4 3 3 9 5 9 5 6 3 6 3 8 6 7 7 7 13 13 17 15 8 9 4 5 4 5 1 6 4 1 4 8 5 4 7 6 5 1 2 3 2 5 2 2 3 2 2 12 8 7 4
16 16 17 18 17 16 16 14 13 12 8 5 1 2 3 3 3 4 3 3 3 5 3 4 3 4 7 8 11 10 8 5 9 10 11 8 6 4 4 6 8 8 7 7 6 7 7 3 10 3 7 4 14 13 17 17 5 10 6 6 6 3 3 5 3 7 8 10 9 6 6 9 0 2 5 5 5 5 3 4 2 5 2 11 7 4 6
18 18 18 17 17 16 14 13 12 12 9 8 3 2 3 2 0 2 2 2 2 5 6 6 3 5 4 5 8 8 8 8 9 11 12 12 11 2 8 9 7 8 5 4 5 7 12 4 4 7 3 3 8 8 16 16 6 17 11 11 6 1 2 5 3 6 6 4 2 1 6 3 9 6 7 6 5 3 3 3 3 4 4 4 4 20 16
19 19 18 17 17 14 13 11 9 8 9 7 2 2 2 2 3 2 3 2 4 5 5 6 6 4 1 1 3 4 5 8 10 9 3 4 3 4 5 8 7 4 6 3 3 5 13 10 7 8 1 0 3 7 11 12 11 17 7 13 5 2 1 4 4 2 2 3 3 8 5 10 7 5 6 10 5 4 5 4 3 9 10 4 1 20 22
19 19 18 17 16 15 13 11 9 7 7 7 2 3 3 2 2 2 1 1 2 4 5 8 7 10 3 3 2 7 10 6 3 6 6 6 4 1 5 6 8 9 5 4 3 8 11 7 2 8 3 2 1 2 2 9 10 13 5 3 4 5 1 2 4 3 4 5 7 6 8 5 11 11 6 8 6 10 10 5 13 10 7 8 12 12 19
19 19 17 17 16 16 14 13 11 8 8 5 3 3 2 4 4 1 4 1 1 1 2 4 2 5 5 5 6 8 7 7 3 3 6 5 5 5 2 4 8 10 9 2 2 3 5 6 6 4 2 4 1 1 2 4 7 10 6 3 1 4 1 1 3 3 6 6 11 10 14 14 13 12 10 7 11 7 5 4 5 10 9 18 18 11 12
21 20 19 18 17 16 15 14 11 9 10 6 4 5 2 2 2 4 5 3 2 2 2 2 4 4 5 1 3 4 5 5 5 4 4 2 4 5 5 8 13 12 11 11 4 1 3 2 2 5 2 3 5 3 1 1 1 1 4 3 5 5 3 4 3 3 4 7 10 13 10 10 11 12 13 13 18 18 13 15 18 24 19 18 18 16 12
21 21 20 19 18 17 16 15 12 10 7 3 3 2 3 1 1 1 4 4 2 3 3 4 3 4 3 2 4 4 5 5 5 5 5 6 5 4 3 6 8 7 9 6 2 3 5 6 4 3 2 5 2 2 3 9 3 7 2 3 2 7 1 3 3 4 2 3 8 5 7 12 14 13 13 12 7 13 5 10 3 15 14 20 18 13 9
21 22 21 20 20 18 17 16 13 10 6 3 2 3 0 2 1 2 2 2 3 4 4 2 3 3 2 3 5 5 6 9 9 3 5 7 11 3 3 3 0 2 5 5 3 5 5 7 7 5 4 4 3 6 6 8 6 1 4 1 4 3 5 4 3 6 1 1 6 2 2 5 7 7 6 7 7 11 12 13 11 12 25 18 14 12 12
21 21 22 21 20 19 18 16 15 9 5 3 3 3 3 2 4 2 1 1 1 2 3 3 1 4 6 7 9 10 9 11 10 3 2 3 1 6 5 4 2 0 1 1 2 2 4 4 5 9 12 12 11 9 11 14 11 6 4 3 2 5 7 3 1 4 2 2 5 2 5 2 2 5 8 2 3 12 15 6 7 5 3 2 1 16 15
22 22 23 21 20 19 18 17 16 12 3 3 3 4 4 4 4 2 1 0 3 2 1 4 4 5 8 11 8 9 10 8 8 6 6 1 2 1 6 2 4 1 4 1 4 4 5 6 8 10 11 11 13 13 16 17 16 9 5 8 5 7 7 3 2 4 1 5 6 6 2 2 2 4 10 10 11 20 18 13 10 6 11 17 18 16 16
22 21 22 22 20 19 18 17 16 14 7 4 3 5 2 2 3 3 3 3 3 2 3 3 5 9 10 10 10 10 7 5 3 3 2 0 1 1 2 2 2 3 1 2 5 8 5 2 4 3 6 7 7 11 19 17 18 13 10 8 6 7 8 4 4 3 3 5 1 4 3 3 1 4 8 9 11 13 22 15 10 7 12 18 16 14 14
22 22 24 24 22 19 19 17 17 15 11 5 4 5 5 5 2 2 1 2 4 4 3 6 8 4 4 4 6 12 4 4 1 4 1 2 3 2 4 4 2 1 1 2 4 6 4 4 3 5 6 5 4 6 5 6 10 14 12 8 8 4 7 6 4 1 5 2 3 3 1 0 4 4 3 2 3 4 4 10 5 4 7 14 17 15 13
23 23 24 23 24 22 19 18 17 15 11 5 5 6 6 6 4 2 2 1 2 7 3 2 6 3 5 2 6 3 2 1 2 3 4 2 2 2 4 3 1 2 3 1 1 1 2 2 2 2 2 4 1 1 3 4 7 10 8 9 10 5 3 3 8 1 5 6 5 3 1 4 7 4 1 1 3 8 6 12 6 6 5 9 15 16 15
22 23 23 23 23 23 21 19 15 13 9 4 3 5 7 6 5 5 3 2 2 3 3 8 6 2 0 1 2 1 3 2 2 2 2 0 3 4 3 2 1 2 2 1 1 2 1 2 1 2 1 0 1 2 1 2 4 7 8 9 10 7 4 7 10 4 6 3 4 2 2 2 4 8 2 3 7 10 5 8 4 5 11 10 15 16 15
22 23 23 24 23 23 22 20 17 14 11 2 3 4 7 5 4 4 2 3 4 6 10 14 7 2 5 2 4 3 1 1 3 3 2 1 3 5 4 1 3 2 3 1 2 2 3 2 1 4 1 2 2 3 2 1 2 3 8 7 9 6 3 8 7 5 3 4 2 2 0 1 4 7 4 5 5 1 3 3 6 11 13 11 13 16 16
22 22 23 23 22 21 21 21 19 16 12 4 3 5 6 6 8 6 3 3 3 6 5 3 3 4 4 3 4 2 1 1 2 6 3 3 4 1 2 2 0 3 4 3 1 3 2 3 2 2 1 4 3 1 3 4 4 3 3 2 3 2 2 5 8 5 6 7 2 1 0 1 2 5 4 4 2 2 4 6 6 14 14 13 12 14 13
24 23 23 23 22 21 20 18 18 17 15 9 4 7 9 9 7 4 3 4 4 5 13 8 5 5 4 0 0 6 6 3 2 2 3 5 1 5 5 1 2 0 0 2 1 1 1 1 1 1 1 1 1 2 2 1 3 2 2 3 2 2 3 2 6 7 6 4 5 2 0 2 0 4 4 4 5 2 6 2 9 18 16 13 13 14 12
25 23 23 23 22 22 21 19 17 15 14 10 4 6 9 8 5 8 7 4 2 6 11 5 7 9 4 7 6 6 6 7 4 4 4 3 4 6 7 5 5 2 4 2 2 0 3 1 0 0 1 1 1 1 3 1 4 3 2 1 3 1 2 2 3 2 3 3 4 2 5 2 2 4 3 0 3 2 4 10 12 12 15 15 12 12 12
25 24 24 23 22 22 20 19 17 14 13 11 5 5 8 4 6 9 8 3 2 4 7 10 6 5 6 4 6 7 5 4 2 3 3 3 5 2 3 4 6 2 2 2 3 2 2 2 2 1 3 3 3 4 1 1 2 4 2 1 2 1 2 1 1 1 5 3 3 3 3 5 2 2 4 1 3 8 11 14 13 11 13 14 12 12 12
25 24 24 24 24 23 21 19 18 16 14 11 10 4 5 6 3 5 6 5 3 5 6 11 11 4 3 4 4 5 4 3 1 0 1 3 2 1 1 4 3 1 1 1 1 1 1 2 2 1 3 0 3 4 6 4 0 3 2 4 2 3 1 2 5 2 1 3 3 2 5 6 6 8 7 9 10 8 8 11 14 15 12 12 11 13 13
26 25 24 24 24 24 23 21 20 16 14 12 8 2 6 7 4 3 5 5 5 4 5 6 3 3 4 7 6 3 4 3 2 1 1 2 2 3 5 3 2 2 1 1 1 2 3 1 2 3 6 3 6 4 4 2 4 2 1 4 5 1 7 7 10 5 9 9 4 5 7 8 8 8 10 12 11 9 10 13 12 8 10 10 11 14 14
26 25 24 24 24 24 24 23 22 20 17 12 6 5 5 5 7 3 2 4 1 5 9 5 7 3 4 8 7 8 6 3 1 0 1 1 3 3 2 1 1 2 1 3 2 1 2 0 1 2 3 1 1 3 5 3 2 6 6 2 1 3 1 1 8 6 5 4 3 9 9 7 9 10 9 10 10 11 9 8 8 10 11 13 13 13 14
25 25 24 24 24 24 24 24 23 21 18 16 14 6 7 5 5 1 3 2 3 0 1 4 4 4 6 4 3 4 6 5 4 2 3 5 3 2 1 3 1 1 3 6 3 3 2 1 2 3 4 1 1 5 2 7 4 1 8 4 5 2 3 11 5 5 4 7 5 8 10 9 8 10 10 10 10 9 8 9 10 12 13 14 14 14 13
26 24 25 25 24 24 24 24 24 22 21 19 10 5 4 5 5 5 1 1 3 1 1 2 1 3 4 4 5 6 6 7 6 5 5 3 2 1 1 1 3 1 2 1 3 5 2 2 2 3 4 3 3 4 3 4 9 7 8 3 0 5 1 3 3 5 8 9 8 10 10 10 9 9 7 8 9 12 13 12 13 13 14 15 13 11 12
25 25 24 24 24 24 24 23 23 23 23 20 12 7 5 6 3 5 3 3 3 2 4 2 3 2 3 5 4 4 6 6 7 4 4 7 6 5 3 4 4 4 6 5 3 3 2 3 4 4 2 2 2 3 3 6 6 3 3 2 3 7 6 8 10 10 7 7 10 12 10 7 6 8 10 12 13 14 14 12 12 12 14 14 13 11 9
25 24 24 23 24 24 23 23 22 24 22 24 12 9 6 2 1 4 6 5 2 1 2 3 4 3 0 4 7 4 5 4 5 5 6 3 4 5 6 7 4 4 4 5 5 5 3 6 3 1 2 3 4 5 5 4 5 6 6 5 3 6 9 8 8 9 7 6 9 4 7 9 7 11 12 14 13 14 14 13 12 12 11 11 13 14 13
25 25 24 24 23 23 23 22 21 22 23 20 10 8 5 5 4 6 6 5 2 2 3 4 4 3 2 3 6 3 5 5 4 5 6 8 5 5 5 5 5 3 3 3 3 2 3 0 1 2 1 2 2 3 4 4 4 4 2 3 4 2 8 8 9 7 8 11 7 8 8 10 11 12 12 12 11 13 13 13 12 12 11 11 11 13 15
25 25 25 24 23 23 23 22 21 21 19 10 6 2 2 1 1 4 5 5 4 2 0 2 2 1 1 2 3 7 2 3 2 3 5 5 6 5 6 4 4 4 3 2 2 3 0 1 2 1 0 0 2 2 3 2 4 3 1 3 4 5 4 8 12 13 11 8 9 9 10 10 10 11 11 10 10 12 12 13 13 13 12 12 13 11 9
26 25 24 24 23 23 23 22 20 19 13 6 3 2 3 2 2 4 10 6 4 1 1 1 3 1 1 2 3 4 3 2 1 1 2 3 4 3 4 4 4 4 6 5 3 0 1 2 0 1 0 3 2 2 4 4 3 1 3 7 7 7 6 6 6 10 12 10 12 12 11 9 9 11 9 9 10 11 10 9 11 11 13 13 12 10 9
26 25 24 24 23 22 22 20 18 14 7 3 1 1 2 3 3 9 12 9 5 1 0 3 3 0 0 0 0 1 3 2 0 0 1 2 3 1 4 3 3 3 2 2 1 2 1 0 2 4 3 4 4 3 3 5 6 3 5 7 5 6 7 8 9 9 12 15 17 14 11 8 8 10 9 10 10 10 11 11 10 10 12 9 8 7 8
27 26 25 24 23 22 22 20 21 11 7 12 14 15 17 20 20 17 8 7 2 2 1 0 2 1 0 1 1 2 0 1 2 0 2 2 1 0 2 1 1 2 4 2 2 1 1 1 1 4 5 3 4 2 4 4 3 4 7 7 7 8 10 9 9 10 10 11 13 15 13 11 9 9 10 10 9 11 11 11 10 10 8 10 9 11 11
27 27 26 24 22 22 20 19 20 17 12 3 5 1 1 7 7 10 4 2 2 2 1 1 1 1 2 0 1 1 0 2 1 2 1 3 0 1 1 1 2 2 3 3 1 1 3 3 2 2 2 5 3 4 4 3 4 7 9 10 10 9 10 10 9 9 8 7 7 8 9 10 10 10 9 9 10 9 8 8 10 10 11 10 10 10 10
28 26 25 24 21 18 20 14 6 1 2 3 3 2 2 6 7 4 1 1 2 1 2 1 1 1 2 1 1 2 2 2 2 2 2 2 1 2 1 1 1 2 1 1 1 0 1 0 0 3 1 2 3 2 1 5 9 10 9 8 8 9 7 9 7 7 8 8 8 9 11 13 13 12 11 10 10 9 8 9 10 11 10 9 9 10 11
28 27 23 19 19 12 6 3 3 1 1 2 3 5 9 10 8 4 6 3 2 0 0 1 2 3 2 1 0 2 1 0 0 0 0 0 1 1 1 1 2 2 2 2 2 1 1 1 3 1 0 2 1 3 5 7 10 10 9 8 5 7 6 7 9 9 9 9 11 12 13 12 12 11 10 11 11 9 9 10 8 8 10 10 10 9 8
28 24 21 15 7 1 1 2 3 2 2 2 9 12 16 9 3 1 1 1 1 1 2 1 2 4 1 2 0 1 1 0 2 1 0 1 0 1 1 2 1 1 2 1 1 1 1 1 3 3 2 3 3 6 7 8 8 9 9 8 6 5 7 7 8 11 13 13 14 13 12 12 12 9 10 10 9 9 10 10 8 10 12 12 9 7 8
30 23 5 1 0 1 1 1 2 6 10 12 9 4 2 2 1 1 0 1 2 3 2 2 4 4 2 1 1 2 0 1 0 1 1 0 0 1 0 2 1 1 1 0 1 1 2 3 1 3 2 3 6 8 7 7 7 7 8 6 5 6 7 8 11 13 14 15 14 13 12 12 11 10 11 11 10 11 9 5 6 9 9 9 8 7 9
16 6 2 1 1 1 0 2 9 18 10 5 1 1 1 1 0 1 1 1 1 2 2 3 4 1 3 3 1 0 3 1 2 1 1 0 1 1 1 1 2 1 0 1 2 2 1 2 2 3 4 3 5 5 7 7 7 7 6 5 5 5 8 10 10 12 11 11 12 13 12 14 15 14 10 10 9 8 8 8 8 8 9 8 7 8 8
8 7 3 3 2 2 6 9 15 10 2 0 0 1 1 1 1 1 1 0 1 2 0 3 3 3 2 1 3 0 1 1 1 2 1 1 1 1 1 1 0 1 1 1 2 0 3 2 0 2 3 4 5 6 8 9 7 7 6 6 6 7 10 10 8 8 7 8 9 10 10 10 10 10 10 10 10 10 9 7 9 9 10 8 8 9 7
7 5 5 3 5 6 7 10 8 2 0 0 1 0 0 1 1 1 0 1 0 2 1 2 1 2 1 0 1 2 2 1 1 1 1 1 1 1 1 0 0 1 0 1 1 1 1 2 1 3 5 6 8 8 9 9 9 8 7 7 7 9 11 11 11 9 9 9 9 10 10 11 10 10 7 7 7 9 8 10 10 11 10 8 10 10 8
6 6 7 8 9 9 7 3 1 1 0 0 0 1 1 1 0 1 0 0 2 1 2 2 1 3 3 3 3 2 1 1 0 0 1 1 2 1 1 0 0 0 0 1 1 1 2 1 3 3 3 7 10 9 9 9 9 10 9 8 8 11 13 13 13 11 10 9 9 8 6 7 8 9 7 7 7 10 9 10 11 10 9 9 10 7 8
20 14 7 4 3 2 2 1 1 0 0 0 1 2 0 0 1 1 1 1 1 1 1 0 1 1 1 3 3 2 1 1 1 1 1 0 1 0 0 0 0 0 0 1 0 0 0 1 2 4 7 8 9 8 7 11 10 10 10 9 8 11 13 12 12 12 10 10 9 8 8 7 6 7 6 7 8 8 8 8 11 10 8 9 10 9 8
8 4 3 2 1 3 1 1 0 1 1 1 2 2 1 1 2 0 1 2 1 2 2 4 2 2 1 0 2 0 2 2 1 0 1 0 0 0 1 0 1 1 0 0 0 1 2 1 3 8 9 8 7 7 7 9 9 9 10 9 7 9 11 8 8 9 7 8 8 7 7 7 8 8 8 7 8 9 8 8 10 10 7 7 9 10 7
3 1 1 1 0 1 2 2 1 1 2 1 1 1 1 3 3 3 5 3 2 4 2 2 2 4 2 1 2 0 1 1 0 1 0 0 0 0 1 1 0 1 1 1 1 1 1 1 3 8 9 9 9 8 7 7 7 10 11 8 7 9 11 8 10 8 7 9 9 7 7 9 9 8 7 8 5 7 9 9 9 8 7 7 8 9 7
1 1 1 1 3 3 1 1 1 1 1 0 2 3 3 5 4 5 4 4 5 5 4 5 4 5 1 1 2 2 0 1 1 1 1 1 1 1 0 0 0 0 0 0 1 3 3 4 8 9 11 11 11 9 9 8 7 8 11 11 9 7 10 10 9 8 8 9 9 8 8 8 9 8 7 9 6 8 9 9 8 8 8 6 6 9 8
2 1 1 1 1 1 1 1 1 1 1 2 4 4 6 6 6 6 4 4 6 6 4 6 5 5 4 2 0 1 0 1 1 1 1 1 1 0 1 1 0 0 0 1 1 2 1 7 8 9 10 11 10 10 10 9 7 10 10 9 8 8 10 10 10 8 9 9 10 8 8 8 8 7 8 9 6 9 9 8 7 11 9 8 5 6 9
2 1 2 0 2 1 3 2 2 5 4 4 4 5 5 5 4 7 7 8 4 2 5 4 2 2 1 1 1 2 2 1 0 0 1 0 1 1 1 0 0 1 1 2 3 3 3 6 7 9 10 12 12 13 11 10 9 11 10 10 10 10 10 11 10 10 11 11 11 9 9 9 9 8 10 9 6 8 10 8 7 11 10 8 5 6 8
2 1 1 1 1 1 2 3 4 6 6 6 6 6 6 5 7 9 8 1 1 1 3 4 1 2 0 1 1 1 1 0 1 1 0 1 1 1 1 1 1 1 2 3 4 5 5 6 9 9 11 10 10 12 11 11 11 12 12 11 11 12 10 11 11 10 11 11 9 9 10 8 9 8 9 9 6 8 9 10 9 10 9 10 7 7 7
1 1 1 1 2 3 6 6 5 5 4 5 4 6 6 7 4 4 0 1 0 1 3 2 3 1 1 1 0 1 1 1 1 1 1 1 1 1 0 1 2 2 2 3 5 4 1 7 10 10 10 9 10 10 11 10 11 11 10 9 9 10 10 11 10 10 11 11 10 10 9 9 10 8 10 10 8 8 7 9 9 8 8 6 8 10 10
0 1 2 2 3 4 4 3 2 4 5 5 4 5 3 5 3 3 1 1 1 3 3 1 1 1 0 0 1 0 1 0 1 2 3 2 1 1 2 3 2 4 7 7 7 4 7 7 9 9 8 9 8 9 9 10 11 10 9 10 10 10 9 10 9 10 10 11 9 11 11 11 10 7 7 7 7 8 6 6 8 7 7 6 9 12 10
0 1 2 3 6 8 8 8 8 8 8 8 9 7 4 4 3 5 2 0 1 5 3 1 0 1 1 1 1 1 0 1 1 1 1 1 2 2 3 4 7 7 7 7 6 5 7 8 9 12 11 12 11 9 8 8 9 8 9 9 9 10 9 10 10 10 10 10 9 9 9 9 9 7 7 8 6 7 8 7 8 10 8 7 6 8 11
Wind_Direction
356 358 357 358 0 4 13 14 15 15 348 331 358 311 298 8 255 253 155 250 215 188 252 219 218 238 252 268 275 274 261 255 279 299 297 303 316 268 230 277 313 266 290 293 332 206 203 206 198 167 176 201 210 172 203 191 208 185 201 180 218 111 100 145 225 288 220 198 207 196 180 210 256 260 276 208 192 202 176 150 182 153 141 97 63 77 261
359 358 359 0 360 4 12 15 15 14 20 354 303 300 274 242 251 297 206 200 219 207 233 230 231 247 254 261 265 257 277 286 286 285 287 282 325 276 285 305 281 305 236 234 293 314 223 213 208 186 171 184 210 169 202 194 209 178 199 176 219 168 251 115 142 208 169 184 204 202 193 192 218 226 268 238 186 169 194 175 250 278 247 144 122 150 152
359 1 2 360 357 356 0 0 359 360 3 356 333 303 333 265 249 236 159 213 214 237 242 301 325 314 306 313 313 315 308 294 297 288 291 303 236 268 282 277 306 303 329 319 324 303 264 164 230 247 167 184 193 178 191 193 193 194 173 147 163 110 184 109 148 177 171 184 189 207 203 207 323 263 271 257 221 188 116 221 215 214 20 109 106 73 97
1 1 359 356 353 353 351 351 349 348 350 356 302 311 303 323 55 144 147 222 202 265 289 305 306 305 314 321 298 285 274 284 271 254 249 229 260 251 274 277 283 285 301 313 319 312 330 257 174 223 145 163 188 180 187 194 190 184 180 142 129 122 145 123 145 156 184 208 210 186 150 140 203 219 227 257 257 226 148 146 101 188 119 61 161 139 142
359 358 355 352 352 349 348 342 342 336 336 337 320 275 221 324 276 170 172 180 231 249 223 236 233 248 183 277 294 304 310 284 286 321 316 169 325 301 285 314 314 306 335 311 314 325 347 291 157 183 300 60 171 172 183 194 203 165 150 142 98 72 51 197 139 171 166 82 28 352 185 181 193 181 218 250 254 247 235 134 177 150 93 19 236 148 138
357 356 354 352 349 348 345 341 338 345 320 336 288 285 214 248 284 344 223 199 209 193 257 238 242 243 146 273 259 260 291 310 324 307 304 333 235 125 298 262 278 282 274 296 6 347 359 332 99 134 280 129 279 7 194 199 167 130 121 95 106 129 120 302 123 14 18 36 17 34 7 217 181 197 205 237 236 217 211 141 157 144 143 168 161 156 134
355 356 355 354 349 348 343 339 337 331 321 313 265 288 253 220 290 308 330 308 270 248 323 303 266 301 183 236 253 280 272 283 288 277 314 316 330 277 273 275 299 302 309 314 113 353 37 326 343 40 43 24 17 295 357 24 141 128 124 112 108 84 114 122 112 71 25 40 52 38 56 44 49 35 33 66 78 41 94 67 141 132 122 131 142 129 118
354 354 355 353 350 345 342 338 336 335 325 304 228 226 289 1 355 332 341 290 295 18 319 330 304 259 290 295 286 298 309 295 296 291 287 301 297 298 282 349 342 327 35 36 50 193 151 239 335 335 71 17 38 338 120 188 327 97 123 101 340 101 300 3 89 73 53 46 62 67 75 76 56 32 32 54 77 69 77 94 91 89 92 106 112 115 108
353 354 352 352 350 348 344 340 340 335 341 280 224 244 195 291 257 206 299 315 355 340 350 313 341 330 283 248 270 270 268 267 278 282 285 271 280 306 335 334 330 10 58 66 351 344 41 348 56 319 32 127 27 77 315 0 266 179 89 62 25 76 159 355 74 82 46 15 78 65 91 80 63 38 25 16 36 86 72 100 136 115 129 125 120 121 133
351 352 352 351 350 349 345 341 342 332 325 267 280 273 147 279 232 176 274 318 354 342 318 309 359 268 248 283 298 299 301 309 318 327 284 269 264 294 26 23 21 328 53 42 312 314 359 352 23 359 25 58 24 33 18 11 357 322 67 85 78 108 113 75 66 82 336 297 73 73 40 47 33 357 347 358 43 96 76 62 49 120 132 128 151 175 149
348 350 352 351 350 347 345 342 340 340 331 308 314 305 341 349 326 319 257 263 286 243 307 305 224 263 291 284 290 282 274 275 274 255 273 283 219 86 64 74 87 255 118 214 311 279 298 22 43 45 37 28 29 27 26 12 6 349 130 72 68 73 94 88 66 110 216 5 11 355 55 73 74 286 288 235 156 102 90 65 88 82 49 131 137 139 138
348 347 350 351 350 348 344 341 339 339 320 285 291 281 260 284 278 246 289 84 276 214 168 272 233 262 280 282 280 275 258 231 241 231 264 306 311 345 90 70 93 22 259 294 335 356 14 35 34 32 43 28 25 31 34 24 355 358 47 114 112 104 91 84 75 92 136 44 21 55 122 180 300 7 75 88 107 98 91 85 72 81 108 109 112 126 134
346 344 346 350 350 348 344 339 338 338 333 282 251 258 280 319 290 286 295 297 271 261 271 237 240 256 270 288 285 271 243 213 226 327 287 310 311 119 136 218 176 228 12 20 4 52 50 357 13 41 30 21 20 31 28 20 12 358 25 31 106 120 101 130 46 95 59 74 60 179 189 270 306 78 102 117 106 105 89 68 52 70 111 119 119 127 130
346 344 345 348 348 349 348 341 338 337 324 295 259 254 270 269 272 283 262 326 282 272 291 299 273 241 185 252 310 307 95 22 318 275 286 272 187 149 133 205 212 193 242 123 108 93 52 24 9 18 348 17 10 27 16 11 23 15 359 19 27 97 113 95 96 56 120 101 75 80 353 234 174 145 193 205 214 252 144 114 90 111 123 123 128 133 137
347 345 344 345 347 348 349 346 338 330 319 276 257 258 259 264 251 264 310 82 283 294 283 273 335 22 347 255 237 314 347 295 5 292 286 181 209 176 209 146 174 87 24 34 41 55 136 141 49 58 342 44 99 243 357 20 319 352 349 5 35 2 110 183 103 352 103 124 116 107 183 195 213 227 143 8 83 105 104 98 108 128 138 137 134 145 142
347 346 344 343 344 345 346 349 344 338 332 296 241 260 266 260 264 275 257 229 326 313 259 242 261 163 239 130 222 348 319 338 303 287 337 171 104 109 67 28 27 13 241 109 112 89 44 95 157 92 137 79 55 55 342 62 351 330 351 27 37 357 84 107 111 137 101 103 125 142 181 250 182 199 180 111 125 121 116 73 111 169 151 164 146 142 143
347 346 343 343 342 342 342 344 350 349 354 326 257 253 267 230 230 239 249 258 182 241 268 262 248 167 153 96 38 14 354 21 335 58 359 169 136 112 143 175 330 253 235 74 39 59 34 43 82 109 111 37 88 160 158 100 93 339 354 40 66 349 347 86 69 101 134 130 94 136 216 251 222 169 154 161 163 151 51 106 214 174 158 157 150 146 147
345 345 343 342 341 341 341 343 345 348 355 341 247 268 269 273 234 230 261 247 266 276 279 51 60 39 55 33 140 120 41 350 26 272 262 300 42 6 103 73 162 50 76 81 14 65 49 54 63 93 143 189 213 136 178 152 129 168 132 195 165 181 359 54 131 133 122 110 77 52 323 301 132 156 170 180 148 45 113 203 190 156 150 153 148 145 141
345 343 342 340 340 340 339 340 341 345 349 352 317 271 256 230 233 219 251 281 274 273 283 330 60 64 34 72 99 158 182 152 175 83 344 4 326 17 29 50 76 23 131 95 50 98 102 344 45 118 134 293 149 144 204 81 144 193 159 104 40 47 99 9 65 92 124 128 106 135 83 251 234 199 185 163 94 146 212 246 136 141 144 147 146 140 140
343 342 340 339 337 337 339 339 339 341 340 340 326 265 275 279 238 192 189 255 294 288 288 335 24 30 28 33 20 36 23 42 47 81 95 187 266 44 14 9 326 35 357 72 46 200 96 175 240 79 40 203 343 108 52 64 117 147 190 200 126 217 95 160 115 139 55 53 92 114 146 224 177 154 78 106 177 228 133 112 111 127 134 138 142 141 144
342 342 340 338 336 336 335 335 333 334 333 327 313 294 303 264 206 198 205 211 257 331 297 332 356 32 7 57 65 47 62 77 112 169 224 192 218 124 103 206 222 183 204 137 140 232 147 192 172 164 193 113 272 50 108 104 14 349 99 41 103 263 96 123 26 202 135 149 153 194 225 160 222 181 172 164 135 146 136 127 126 137 139 143 147 147 151
341 340 339 337 336 334 333 332 330 328 333 333 322 264 257 268 202 182 191 190 233 208 235 280 300 324 14 43 115 100 80 80 89 231 216 313 308 228 244 38 16 3 52 45 35 23 44 190 164 184 126 16 42 151 167 83 333 281 2 91 54 296 174 212 142 289 146 164 153 130 84 86 85 104 110 106 106 113 119 124 134 144 150 147 148 146 142
342 340 338 336 335 333 333 331 332 329 332 334 341 254 274 305 293 196 176 227 234 261 260 271 306 348 354 34 22 68 118 137 134 14 55 86 339 352 64 20 343 300 33 84 164 186 210 99 215 169 110 116 184 148 193 161 145 205 55 357 128 46 113 109 91 75 89 59 72 109 80 80 73 74 103 109 105 100 113 124 131 138 140 142 136 136 138
341 339 337 335 334 333 332 331 330 331 333 332 327 293 283 261 288 307 232 227 258 330 326 321 41 335 11 15 11 17 10 45 95 165 213 121 84 355 348 32 266 343 338 290 179 126 255 140 210 74 104 270 66 121 147 73 92 140 114 92 45 193 228 33 101 175 87 82 41 88 98 95 89 93 87 97 109 121 128 129 124 129 125 120 127 132 138
337 336 334 334 333 332 330 331 329 328 330 333 333 267 229 276 255 264 357 0 320 326 239 302 21 322 15 38 13 36 8 350 13 64 66 54 83 109 76 276 197 176 273 289 340 28 29 71 351 59 88 296 95 48 48 118 136 130 97 105 130 50 114 84 71 70 82 133 130 98 97 101 109 109 110 109 115 112 100 103 109 110 113 120 128 133 136
334 333 334 332 331 330 329 328 328 326 330 327 330 306 312 274 296 315 275 296 257 167 139 294 182 54 356 9 39 44 359 357 348 25 21 70 104 2 280 312 320 250 223 291 39 64 37 33 39 70 86 328 28 95 58 89 110 76 95 51 46 144 165 92 158 105 92 92 102 113 100 98 107 112 107 116 116 110 109 109 111 114 119 125 131 137 142
331 331 329 329 328 327 328 327 326 328 329 328 328 304 259 271 326 52 39 319 3 354 16 351 303 34 16 19 352 51 19 4 349 10 50 27 19 357 8 17 20 2 28 355 17 98 46 59 75 52 61 72 65 102 114 57 50 62 42 352 79 64 83 118 109 114 152 161 158 142 134 144 122 115 121 118 117 116 118 119 119 124 128 134 133 129 130
329 327 326 326 326 325 324 325 325 328 329 327 313 296 250 230 90 67 48 25 66 172 244 281 304 274 266 1 336 52 31 12 351 6 1 59 36 20 24 18 14 45 13 57 14 10 26 53 2 306 70 358 45 39 66 95 73 42 40 9 15 119 156 144 138 151 182 157 143 95 101 109 117 119 118 119 121 125 128 132 132 131 132 135 135 134 136
326 324 324 323 322 322 322 321 323 327 331 329 311 298 289 141 125 83 59 18 344 291 245 254 259 332 42 291 322 1 65 12 15 21 18 7 19 22 30 28 38 22 38 52 86 81 91 183 209 70 57 238 75 92 54 36 60 85 70 21 32 114 173 168 158 126 118 137 122 121 125 126 129 121 119 121 127 126 129 133 136 139 137 139 140 148 151
324 323 322 320 319 318 318 317 319 326 333 322 314 307 11 339 155 104 63 65 355 284 38 358 7 261 245 22 317 305 73 59 347 44 52 17 15 17 20 27 18 27 69 94 116 73 357 108 332 15 124 67 118 124 85 121 83 118 179 113 76 44 66 140 143 143 146 137 125 119 112 109 110 115 118 124 129 126 134 142 145 145 143 145 149 153 156
323 321 319 316 315 313 313 313 315 325 333 322 333 8 34 354 290 349 3 6 6 321 245 174 236 255 359 213 220 293 311 144 182 1 106 104 55 17 17 25 22 41 47 1 42 81 82 45 18 325 46 48 97 88 134 106 100 356 16 62 67 73 70 87 109 120 119 112 111 108 104 108 112 111 119 130 125 130 134 136 140 142 146 151 156 157 155
321 319 316 313 310 309 307 307 308 322 310 289 268 199 204 220 260 314 322 328 327 312 311 345 324 12 240 300 262 215 276 344 39 190 354 6 67 38 55 57 69 6 108 88 319 35 6 24 76 38 24 315 53 89 63 83 104 131 99 82 73 83 86 90 95 97 107 116 114 107 110 120 136 137 143 137 131 131 137 141 146 148 150 150 147 138 132
320 316 312 309 307 305 304 301 303 309 274 270 271 267 266 271 277 281 295 315 301 243 250 166 244 244 251 236 319 287 3 17 329 118 334 310 117 213 63 182 84 36 357 61 349 123 230 107 64 49 339 27 72 59 87 90 132 130 105 98 87 80 87 88 94 102 112 122 132 141 148 150 142 134 133 130 134 138 147 154 154 154 148 149 138 132 125
316 311 308 304 301 300 296 294 300 298 286 253 335 332 290 212 246 257 261 209 251 272 229 165 300 325 260 301 68 291 223 247 265 88 17 308 102 78 179 39 2 63 319 105 270 52 337 59 89 147 23 28 53 75 71 122 128 94 94 96 96 95 99 101 107 114 117 113 104 113 122 126 127 127 129 135 140 148 152 154 156 156 154 144 136 134 126
312 307 304 300 295 290 292 292 317 281 275 289 271 193 217 214 234 259 218 294 19 339 3 310 160 293 338 329 109 266 299 47 27 339 132 266 208 127 132 85 321 77 282 282 36 114 75 316 138 65 145 104 52 79 148 144 109 104 103 99 107 109 110 114 125 127 119 119 119 118 122 129 133 140 147 148 151 158 157 158 160 153 141 133 129 124 126
309 305 298 292 289 285 287 257 169 262 253 231 248 289 293 302 305 262 199 212 175 250 174 259 354 287 234 291 90 266 282 64 243 112 134 167 354 322 117 121 46 287 218 87 146 29 84 327 69 93 245 72 134 145 157 124 120 123 120 119 133 126 137 141 137 132 126 121 121 127 132 137 141 147 151 155 159 166 162 161 161 146 135 132 134 133 132
308 299 295 291 282 156 242 235 213 163 271 277 275 297 293 295 254 206 203 177 234 181 223 302 312 261 238 247 279 297 41 303 247 118 5 74 168 280 51 49 95 295 37 24 29 55 248 136 91 82 43 120 122 112 116 122 123 125 127 136 135 127 135 137 133 125 124 126 130 137 143 144 144 153 158 162 167 166 165 169 163 145 144 144 143 136 132
308 304 304 272 243 304 307 320 20 317 318 303 308 326 338 75 290 302 156 196 217 147 250 205 229 254 304 305 196 244 90 265 249 133 334 329 49 323 6 102 209 92 54 118 268 292 32 30 69 107 67 88 118 115 118 118 114 114 124 136 144 147 140 132 131 133 135 139 145 150 149 150 155 164 166 169 170 167 170 163 139 130 130 135 137 135 124
309 303 263 228 157 281 24 308 345 334 312 260 196 31 310 218 101 298 210 212 104 246 249 196 249 230 270 256 237 294 138 163 343 338 111 274 95 312 345 72 298 66 308 41 302 14 52 349 19 60 101 127 113 121 120 116 119 129 142 151 153 144 130 131 139 142 152 156 155 158 157 160 164 167 173 168 167 163 163 151 138 134 136 133 133 130 126
17 360 344 331 24 315 304 315 332 313 262 17 248 111 283 264 124 265 213 126 237 264 163 260 227 218 219 192 141 299 320 80 45 307 134 321 339 149 257 88 270 90 213 133 232 33 116 120 355 77 130 143 134 144 132 140 139 152 159 162 156 139 135 137 141 146 146 153 158 156 157 164 168 168 170 172 166 158 149 131 133 133 135 134 137 135 144
12 346 337 350 324 325 310 314 307 252 283 15 349 279 290 313 244 231 356 261 209 246 182 207 315 313 250 211 92 147 287 59 162 193 109 118 253 74 43 174 219 90 213 165 270 89 107 93 133 156 215 164 152 153 152 151 155 165 163 163 153 144 140 143 151 159 162 165 165 163 167 169 167 171 167 155 147 146 139 140 132 141 139 131 146 151 178
302 278 285 297 290 284 292 269 216 357 338 231 187 247 185 221 297 334 230 199 224 240 257 183 270 267 279 111 52 83 7 323 142 99 84 16 303 84 247 118 42 115 223 245 164 119 114 134 175 200 215 156 155 159 157 156 161 159 166 162 155 151 152 158 163 171 175 170 162 162 158 152 145 150 160 142 144 144 143 147 140 145 141 148 153 155 175
286 263 218 259 265 237 216 298 243 131 156 72 63 341 292 144 194 201 250 226 304 258 275 283 237 80 340 55 36 20 174 227 80 326 68 171 295 42 61 18 57 353 241 294 80 271 187 203 185 205 165 156 154 154 152 153 162 159 159 162 161 157 161 166 167 172 173 166 165 158 164 161 154 153 145 132 131 118 128 136 142 146 149 153 159 166 182
280 246 205 210 250 272 130 284 301 57 308 170 138 193 177 298 301 64 289 263 189 274 205 191 195 113 258 303 128 277 24 356 35 62 26 29 82 8 49 263 203 225 46 18 79 207 225 214 174 169 155 148 150 151 148 142 146 148 154 165 156 148 152 152 138 144 144 137 142 141 137 139 138 136 131 140 134 133 135 139 147 153 161 156 162 179 167
301 276 207 291 270 266 67 317 270 162 203 201 124 216 180 199 241 241 230 256 233 243 181 187 113 138 193 263 52 90 129 190 326 92 239 123 47 76 111 266 347 52 128 220 257 284 275 307 114 133 150 156 162 159 151 152 146 150 154 154 152 150 152 153 153 155 152 148 154 142 136 141 135 142 137 152 153 145 139 149 156 164 174 160 167 178 150
307 299 270 146 312 298 212 247 142 213 276 150 199 195 238 243 227 245 248 260 260 259 225 200 176 153 178 134 133 200 4 99 67 238 188 105 105 240 250 8 61 64 330 47 209 225 221 180 166 165 164 161 161 156 155 157 149 146 149 163 174 162 157 153 155 150 148 147 148 142 146 143 149 155 157 165 160 148 150 159 164 168 176 173 159 162 144
267 269 241 301 277 261 147 223 224 213 203 200 224 221 224 244 247 251 250 243 251 253 226 179 171 164 146 197 113 35 83 92 155 237 88 79 179 263 5 88 289 229 159 245 246 252 251 171 177 164 160 157 157 154 157 161 159 157 160 165 171 164 154 154 154 154 152 147 149 150 153 156 160 164 160 169 170 158 161 169 160 169 173 182 175 167 145
290 305 322 210 245 212 210 238 285 296 296 278 256 247 238 230 240 256 253 248 241 9 46 36 3 87 63 320 79 196 199 138 90 297 139 192 26 53 20 42 286 241 204 195 236 239 242 177 170 165 169 163 159 158 160 164 164 163 164 168 168 164 161 160 163 160 156 158 162 162 163 165 167 162 166 174 168 165 166 172 155 164 164 182 165 158 153
266 331 291 304 289 296 267 228 201 238 254 258 260 265 260 256 245 251 256 289 28 52 81 75 359 30 3 149 133 68 281 179 167 234 29 48 100 193 146 214 190 267 262 199 230 229 231 166 166 162 159 160 162 162 165 165 165 168 172 172 171 169 167 167 168 164 159 161 165 165 168 167 163 161 168 181 172 173 169 170 154 169 173 178 171 158 156
260 278 250 255 312 285 266 287 294 279 254 250 249 254 246 255 252 266 259 31 329 41 53 57 88 102 243 118 221 110 256 171 154 97 100 172 169 176 98 253 210 200 250 238 236 254 189 153 154 155 158 158 159 161 161 164 164 169 172 171 167 168 170 169 167 165 163 165 168 169 165 162 170 172 176 179 174 168 157 169 164 165 184 177 155 161 160
217 222 248 231 249 274 325 300 293 318 314 295 271 252 242 250 246 279 64 26 56 54 61 185 193 137 186 344 113 95 254 141 92 170 150 191 164 155 185 213 238 222 238 245 233 178 144 145 140 142 146 155 164 165 165 164 165 167 169 169 170 169 169 169 170 165 165 167 168 166 168 172 178 173 165 157 158 166 162 171 177 178 182 178 158 163 168
245 236 247 236 238 261 268 277 281 269 264 268 281 285 304 282 205 234 142 293 89 124 197 220 142 166 103 233 224 191 26 45 244 97 104 247 135 165 210 200 232 241 237 251 263 156 161 153 157 156 159 158 164 158 158 154 162 162 167 169 170 171 171 173 170 168 165 170 171 171 169 171 169 167 163 173 168 172 180 186 190 189 190 186 171 168 179